Wetbulb
56.24 56.25 55.80 54.83 54.84 55.14 54.60 54.46 54.38 54.49 54.51 54.74 54.92 54.95 55.39 55.64 55.34 54.57 49.14 56.14 59.09 61.49 59.04 54.88 54.38 54.04 54.46 52.46 53.92 54.53 46.82 45.00 46.64 47.58 49.95 53.99 52.49 56.80 58.75 57.10 57.79 57.83 58.40 60.95 61.76
56.34 55.92 55.26 54.94 54.55 54.71 54.72 54.32 54.22 54.53 54.33 54.28 54.51 54.96 55.37 55.42 53.07 50.90 58.28 64.33 63.36 61.91 52.49 52.62 52.30 53.21 50.73 51.02 52.10 50.61 47.31 47.25 50.73 51.32 50.46 52.41 52.63 53.38 53.08 54.16 54.53 55.52 58.16 59.90 61.31
55.79 55.98 55.46 54.98 54.13 54.13 54.27 54.42 54.14 54.08 53.98 54.24 54.74 54.98 55.26 55.22 52.33 53.05 65.60 63.70 63.30 61.41 52.69 55.23 54.52 52.23 49.14 51.17 50.85 50.74 47.17 50.46 51.20 52.74 53.12 51.99 51.81 53.69 52.33 50.93 53.18 53.60 56.25 58.38 59.68
55.56 55.87 55.81 55.24 54.90 54.40 53.87 53.73 53.63 53.97 54.09 54.23 54.55 54.88 55.26 53.82 48.84 58.95 64.78 64.12 63.95 55.01 52.71 53.25 52.78 50.08 48.69 48.00 51.18 47.98 50.86 51.21 51.61 53.00 52.10 51.34 52.65 51.61 51.98 52.33 54.62 54.83 55.67 56.62 57.46
54.89 55.21 55.51 55.38 55.21 54.80 54.61 54.23 54.22 53.77 53.69 53.98 54.68 54.92 54.05 51.51 51.06 62.88 63.71 62.93 55.40 53.83 52.86 54.73 52.20 50.84 47.68 49.40 50.58 49.11 50.18 51.51 52.24 52.04 52.24 52.46 50.91 51.00 51.20 53.77 54.37 54.69 55.38 55.21 56.27
54.56 54.51 54.61 55.02 55.31 54.86 54.73 54.82 54.16 53.87 53.60 53.95 54.74 54.68 52.07 47.45 58.26 62.70 58.16 56.11 54.80 54.94 55.44 53.82 52.30 52.59 50.52 49.98 49.60 51.20 50.73 50.88 51.63 51.39 51.58 50.07 50.20 50.76 51.65 54.00 53.96 54.32 54.28 55.03 55.85
54.52 54.52 53.96 54.21 54.72 54.94 55.23 55.42 55.11 54.32 54.08 54.65 55.60 55.05 52.47 51.78 54.66 60.92 57.22 55.73 55.50 55.17 54.80 54.86 54.49 53.09 52.62 49.94 52.75 51.28 48.53 49.91 50.34 50.71 50.04 51.28 47.94 48.64 52.33 53.53 53.11 53.72 54.98 55.19 56.39
53.93 53.94 54.01 53.46 54.22 54.47 54.88 54.77 54.42 54.51 54.76 55.59 55.66 55.28 52.09 58.69 58.31 56.75 58.27 56.90 60.02 59.65 57.25 55.63 56.66 54.45 52.69 53.04 51.32 48.45 48.45 44.18 49.04 50.23 50.62 50.07 44.73 50.24 53.29 52.90 52.17 53.29 53.99 54.85 56.77
53.93 53.78 53.82 53.05 53.42 53.79 54.10 54.33 54.43 55.41 55.11 55.79 54.43 54.58 52.74 58.55 53.29 53.82 59.26 55.92 55.93 55.63 55.74 57.36 55.35 51.99 51.44 47.81 46.23 47.58 42.86 44.45 46.26 50.60 49.98 49.02 46.18 50.51 52.87 53.21 52.58 53.38 53.85 54.40 55.64
54.23 53.90 53.65 53.30 53.00 53.14 53.69 53.61 55.96 54.46 54.88 57.74 57.10 53.25 56.61 54.41 54.86 52.61 58.73 57.36 52.54 53.45 53.41 52.63 51.08 48.16 47.75 46.25 39.96 42.85 43.68 44.98 44.93 49.14 49.34 47.71 46.87 49.40 51.37 52.15 52.39 53.07 53.78 54.80 55.42
54.62 54.31 53.49 53.16 52.80 52.74 52.92 54.18 53.95 53.46 55.98 53.80 55.10 53.12 54.16 56.74 54.98 51.02 57.51 56.45 54.00 52.14 47.38 50.56 46.39 43.90 46.39 47.86 47.71 46.73 45.58 45.01 47.70 49.81 48.25 47.29 47.70 49.30 51.37 51.48 51.65 53.19 54.32 55.56 56.29
54.71 54.30 53.51 53.01 52.47 52.68 51.90 51.83 55.50 55.50 49.37 56.90 56.57 56.14 56.83 56.52 51.47 51.99 55.18 52.81 50.46 46.53 48.91 47.53 44.98 48.87 49.83 49.35 47.97 47.09 45.19 44.76 47.19 49.03 48.11 47.34 46.94 49.57 50.97 52.07 52.81 53.12 54.39 55.44 56.50
54.27 53.86 53.24 52.68 52.64 51.13 52.60 54.65 57.71 58.58 49.31 51.34 54.62 53.42 53.77 55.34 51.48 50.60 53.66 52.70 49.02 47.11 47.69 45.58 47.76 50.74 49.06 47.60 46.30 46.33 44.95 44.92 44.67 47.61 48.72 47.49 45.68 47.69 50.58 52.03 53.18 54.10 55.35 55.87 56.29
54.00 53.28 52.64 51.99 49.35 55.68 54.07 58.10 58.33 59.06 45.56 48.23 49.55 52.15 53.09 53.34 49.60 54.93 54.72 52.86 49.32 47.00 48.37 47.82 50.54 48.93 47.99 46.25 46.61 43.19 48.02 47.03 45.76 44.33 40.14 47.22 39.65 47.08 49.55 50.70 52.37 53.57 54.32 54.89 55.75
53.50 52.95 52.33 51.41 54.41 55.40 57.04 58.63 58.49 57.69 37.12 50.48 50.66 55.94 54.59 50.13 51.12 50.97 55.18 51.96 47.13 47.58 48.47 45.86 47.96 47.61 46.30 46.49 48.22 45.51 48.23 46.62 46.06 44.18 43.72 43.73 41.16 44.54 48.93 48.09 50.74 53.52 54.88 55.88 56.84
53.23 52.60 51.86 53.03 54.83 57.93 59.08 59.50 58.32 45.04 37.15 47.59 50.83 49.31 48.77 50.29 50.02 52.38 51.79 53.43 51.86 47.69 48.16 46.64 50.09 48.69 47.95 49.17 49.22 49.27 46.82 46.46 46.10 43.79 38.39 42.42 42.15 42.65 46.51 49.46 52.21 54.40 55.27 55.83 55.90
52.81 51.98 50.70 57.35 56.31 58.55 58.16 55.77 44.77 39.57 50.50 45.87 47.20 49.25 48.70 47.45 48.01 49.05 48.17 46.85 43.88 39.81 40.47 44.85 45.57 48.56 49.05 45.86 48.50 47.49 44.70 37.91 36.88 37.52 37.17 45.19 43.15 45.81 51.26 52.99 53.31 53.33 54.33 55.93 56.43
51.12 49.74 54.38 57.94 58.97 57.66 56.28 49.07 39.08 46.01 46.14 49.77 48.67 48.62 45.68 47.78 47.55 47.42 46.57 44.70 47.81 45.75 42.69 40.66 39.10 46.41 49.74 47.16 44.59 45.11 44.56 38.19 31.44 33.94 37.58 45.33 40.15 45.09 52.79 54.15 55.12 55.33 55.24 56.02 55.77
49.11 59.21 58.55 60.12 60.14 58.79 52.92 43.29 43.53 46.26 48.88 47.08 47.47 44.89 44.69 46.68 47.05 46.93 46.29 45.38 47.63 48.39 42.17 41.06 40.97 48.94 49.87 50.59 48.87 44.61 41.04 46.32 40.25 41.46 37.73 40.94 45.05 49.64 52.20 52.54 53.56 53.68 54.15 54.71 55.85
52.09 58.15 57.29 60.45 61.49 57.90 50.54 46.07 47.79 50.05 49.56 48.57 42.44 45.17 42.16 44.59 44.71 44.81 45.20 48.76 46.95 48.95 49.60 45.31 39.16 46.40 48.11 49.88 49.95 46.80 48.17 38.64 39.63 33.08 31.74 38.53 41.07 42.51 46.36 49.11 51.80 52.18 52.60 53.91 55.20
54.14 54.37 59.38 62.48 61.00 53.61 45.90 46.66 48.86 51.04 50.74 47.40 45.07 43.53 43.99 43.06 44.69 43.41 43.62 47.68 49.50 48.69 50.12 47.44 43.53 42.24 46.24 43.94 42.94 44.30 42.57 43.43 42.98 40.05 33.28 32.74 38.38 49.68 48.44 50.23 50.66 52.29 52.89 53.58 53.74
56.32 50.24 59.57 61.40 51.94 53.56 47.94 49.53 46.07 49.34 50.68 48.81 48.72 47.61 44.67 44.77 43.25 43.02 42.84 45.84 49.82 49.12 44.53 47.29 43.57 38.82 41.08 46.73 48.28 47.19 44.51 44.47 37.74 36.30 39.67 38.40 37.73 50.69 50.46 50.78 51.73 51.79 52.57 53.28 53.72
52.06 53.18 59.14 59.11 47.74 48.94 50.92 48.51 48.83 47.86 48.32 47.74 46.90 47.79 48.19 44.73 41.30 44.99 45.47 49.03 49.44 47.62 45.23 47.07 41.75 35.36 37.02 42.24 46.26 42.18 43.74 43.76 42.93 42.57 36.70 34.77 37.90 49.75 50.20 48.93 50.46 50.73 51.90 52.29 52.80
52.25 48.44 52.69 54.53 53.90 49.46 48.21 47.40 46.68 50.24 47.55 48.41 47.88 48.66 46.50 44.72 45.83 42.57 44.36 46.82 48.07 47.54 46.70 46.41 41.65 37.17 32.76 36.47 41.46 38.73 40.98 41.83 40.40 34.48 36.43 37.80 40.41 44.94 47.39 47.17 49.27 50.85 51.39 51.39 51.86
53.19 50.08 50.05 48.13 49.16 48.56 47.66 47.42 44.80 44.71 48.22 48.48 46.25 45.60 44.53 41.45 42.91 43.12 45.02 45.68 47.08 47.27 45.88 43.94 37.11 40.18 40.46 40.64 40.74 40.13 40.21 40.92 39.50 40.78 36.73 39.76 39.91 43.80 46.76 48.33 49.06 49.51 50.44 50.31 50.90
49.22 48.22 51.66 49.57 48.68 47.29 43.53 46.38 44.71 45.98 45.20 45.34 44.31 45.74 45.44 41.68 42.94 41.36 43.41 43.85 43.21 45.81 43.77 44.31 37.50 40.05 37.81 40.95 40.60 39.19 41.53 41.95 41.87 42.13 41.75 41.81 41.22 47.67 48.63 48.87 48.60 49.34 49.73 49.30 49.68
53.38 54.48 50.21 45.94 48.25 45.73 47.10 46.70 45.25 46.15 47.26 46.97 45.89 44.86 43.67 45.02 47.24 47.54 47.87 47.36 46.47 43.32 41.66 41.46 39.01 36.39 32.65 39.50 38.99 35.65 40.59 41.80 42.50 44.02 43.09 38.65 43.58 47.05 46.35 46.80 47.52 48.18 48.67 48.14 49.37
MSLP
1016.47 1016.13 1015.89 1015.71 1015.48 1015.26 1015.06 1014.96 1014.86 1014.73 1014.54 1014.47 1014.29 1014.04 1014.02 1013.67 1013.13 1012.47 1010.29 1008.21 1008.09 1008.26 1008.40 1008.12 1007.19 1006.77 1006.49 1005.76 1005.01 1004.42 1004.22 1002.74 1001.74 1001.16 1000.20 999.57 999.40 999.64 999.56 1000.04 1000.29 1000.98 1001.08 1001.27 1001.68
1016.52 1016.10 1015.80 1015.56 1015.31 1015.08 1014.93 1014.80 1014.66 1014.53 1014.43 1014.24 1014.15 1013.91 1013.73 1013.47 1012.40 1010.01 1007.65 1007.82 1007.83 1008.12 1008.10 1007.27 1006.29 1006.08 1005.60 1005.01 1004.41 1003.85 1003.36 1002.31 1001.52 1001.21 1000.17 999.77 999.71 999.77 1000.15 1000.43 1001.16 1001.50 1001.38 1001.21 1001.41
1016.47 1016.00 1015.66 1015.43 1015.16 1014.98 1014.74 1014.60 1014.45 1014.37 1014.20 1014.04 1013.88 1013.78 1013.55 1013.33 1011.10 1006.47 1005.38 1006.94 1007.49 1008.07 1007.62 1006.32 1005.60 1005.36 1004.96 1004.44 1003.81 1003.47 1002.81 1001.94 1001.24 1000.46 1000.52 1000.69 1000.49 1000.68 1000.93 1001.16 1001.51 1001.44 1001.14 1001.13 1001.04
1016.48 1015.99 1015.57 1015.25 1015.02 1014.83 1014.64 1014.42 1014.29 1014.08 1013.96 1013.89 1013.69 1013.53 1013.33 1012.67 1008.33 1005.98 1006.31 1006.85 1007.41 1007.54 1007.44 1006.62 1005.20 1004.57 1004.32 1003.73 1003.18 1002.88 1002.55 1002.14 1001.44 1000.67 1001.11 1001.23 1001.34 1001.13 1001.64 1001.69 1001.70 1001.76 1001.45 1001.58 1001.50
1016.39 1016.03 1015.59 1015.20 1014.86 1014.62 1014.41 1014.26 1014.10 1014.01 1013.92 1013.80 1013.67 1013.41 1012.88 1010.42 1006.70 1006.27 1006.61 1007.06 1007.24 1007.38 1006.63 1005.46 1004.71 1004.19 1003.64 1003.04 1002.56 1002.17 1002.05 1001.68 1001.26 1001.10 1000.99 1001.50 1001.40 1001.43 1001.39 1001.46 1001.89 1001.99 1001.64 1001.84 1002.09
1016.38 1015.91 1015.56 1015.15 1014.76 1014.41 1014.18 1013.98 1013.85 1013.75 1013.69 1013.62 1013.43 1013.42 1012.08 1008.03 1004.72 1005.75 1006.13 1006.59 1006.27 1006.39 1005.73 1004.81 1004.03 1003.50 1002.92 1002.46 1001.83 1001.66 1001.55 1001.26 1001.23 1000.92 1001.13 1001.36 1001.43 1001.45 1001.43 1001.42 1001.23 1001.52 1001.51 1001.65 1001.90
1016.17 1015.82 1015.46 1015.06 1014.66 1014.24 1013.87 1013.66 1013.56 1013.53 1013.50 1013.30 1013.14 1012.70 1010.19 1006.40 1004.37 1004.82 1005.58 1005.79 1005.66 1005.44 1004.59 1004.32 1003.73 1003.08 1002.78 1002.28 1001.95 1001.41 1001.20 1001.26 1001.06 1000.80 1000.91 1001.15 1000.90 1000.70 1000.90 1000.68 1000.77 1000.93 1001.16 1001.25 1001.35
1016.11 1015.58 1015.26 1014.98 1014.54 1014.12 1013.72 1013.37 1013.14 1013.05 1013.04 1013.06 1013.09 1012.11 1008.18 1004.62 1004.62 1004.54 1004.80 1004.91 1004.75 1004.54 1004.41 1003.75 1003.59 1003.62 1003.09 1002.64 1001.77 1001.51 1001.38 1000.86 1000.47 1000.21 1000.33 1000.82 1000.02 1000.03 999.78 999.83 1000.10 1000.58 1000.76 1000.80 1000.79
1015.98 1015.51 1014.92 1014.60 1014.33 1013.89 1013.50 1013.13 1012.74 1012.61 1012.67 1012.77 1012.41 1010.70 1006.36 1004.87 1004.43 1004.24 1004.22 1004.15 1004.27 1004.48 1004.34 1004.09 1004.16 1003.98 1003.40 1002.81 1002.07 1001.67 1000.96 1000.27 999.75 998.91 998.89 999.52 999.55 999.65 999.28 998.94 999.64 1000.28 1000.56 1000.80 1000.70
1015.61 1015.21 1014.88 1014.32 1013.97 1013.65 1013.08 1012.62 1012.14 1012.34 1012.36 1011.58 1010.50 1009.01 1005.47 1003.75 1003.42 1004.03 1004.02 1004.03 1004.25 1004.47 1004.62 1004.85 1004.47 1003.92 1003.30 1002.27 1001.42 1000.80 1000.11 999.65 998.82 998.05 998.60 999.26 999.37 999.64 999.25 999.43 999.81 1000.10 1000.53 1000.37 1000.42
1015.25 1014.81 1014.43 1014.18 1013.73 1013.55 1012.97 1011.74 1011.68 1010.66 1009.87 1007.27 1005.99 1004.90 1003.25 1003.08 1003.30 1003.79 1003.90 1004.09 1003.99 1004.46 1004.24 1004.11 1003.90 1002.90 1002.33 1001.83 1001.47 1000.52 999.75 999.18 998.57 998.27 998.57 998.72 998.87 999.01 998.92 998.95 999.05 999.34 999.74 1000.02 1000.12
1014.86 1014.34 1013.97 1013.66 1013.42 1013.29 1013.25 1010.44 1007.52 1007.07 1006.64 1005.95 1005.36 1004.07 1003.09 1003.06 1003.04 1003.26 1003.64 1004.11 1004.18 1004.03 1004.04 1003.92 1003.00 1002.60 1001.87 1001.28 1000.89 1000.48 1000.19 999.98 999.63 999.20 999.05 998.92 998.78 998.98 999.18 998.85 998.65 998.62 998.76 999.10 999.44
1014.43 1013.88 1013.41 1013.12 1012.86 1012.52 1010.54 1008.26 1007.04 1006.28 1005.87 1004.45 1004.00 1003.41 1003.14 1003.05 1002.99 1002.73 1003.44 1003.67 1003.60 1003.83 1003.42 1002.92 1002.12 1001.57 1001.35 1001.31 1000.98 1000.66 1000.73 1000.71 1000.41 1000.00 999.48 999.18 998.83 999.12 998.89 998.40 998.24 998.10 998.22 998.58 998.99
1013.91 1013.33 1012.84 1012.61 1012.49 1009.08 1008.39 1007.37 1006.32 1006.63 1005.47 1003.71 1003.70 1003.47 1003.58 1003.06 1003.06 1002.71 1002.93 1003.69 1003.60 1003.11 1002.74 1002.27 1001.68 1001.19 1000.99 1001.18 1001.44 1000.85 1000.79 1000.90 1000.79 1000.59 999.97 999.86 998.45 998.25 997.70 997.10 997.10 997.30 997.54 997.98 998.54
1013.39 1012.80 1012.22 1012.21 1010.07 1006.84 1005.22 1005.47 1005.83 1006.12 1004.64 1002.75 1002.93 1003.35 1002.96 1003.56 1002.80 1002.80 1002.69 1003.41 1003.43 1003.09 1002.85 1002.14 1001.41 1001.01 1000.85 1001.05 1001.05 1000.82 1001.03 1001.05 1000.88 1000.55 1000.33 1000.01 999.22 998.17 997.53 996.72 996.31 996.20 996.46 997.01 997.76
1012.74 1012.25 1011.70 1010.88 1009.68 1007.04 1005.47 1005.73 1005.95 1005.56 1003.51 1002.00 1002.22 1002.68 1003.16 1003.27 1002.90 1002.74 1003.35 1003.88 1003.87 1003.76 1003.35 1002.93 1002.22 1001.43 1000.77 1000.96 1001.11 1001.33 1001.53 1001.42 1001.37 1001.41 1000.40 1000.28 999.42 998.01 996.98 995.98 995.35 995.04 995.45 996.40 997.45
1012.02 1011.46 1011.43 1009.11 1006.56 1005.60 1005.77 1005.83 1005.40 1004.09 1003.05 1002.38 1001.86 1001.95 1002.30 1002.92 1003.01 1003.41 1003.67 1004.03 1004.24 1004.58 1004.19 1003.63 1002.83 1002.25 1001.85 1001.72 1001.83 1002.04 1002.28 1002.04 1001.78 1001.20 999.94 999.66 998.40 996.93 996.18 995.74 995.75 995.84 996.34 997.48 998.61
1010.96 1010.65 1008.94 1008.13 1006.35 1006.26 1005.99 1005.52 1004.74 1003.93 1002.72 1002.87 1002.81 1002.57 1002.31 1002.71 1002.99 1003.46 1003.72 1003.83 1004.21 1004.40 1004.27 1003.70 1003.14 1002.53 1002.16 1002.00 1002.12 1002.27 1002.65 1002.78 1002.54 1002.21 1000.93 1000.15 998.56 997.42 996.91 996.66 996.40 996.78 997.01 998.22 999.37
1010.38 1008.23 1007.75 1006.19 1006.33 1006.28 1005.79 1004.74 1003.89 1002.98 1002.98 1003.13 1003.45 1003.54 1003.44 1003.69 1004.21 1004.18 1004.12 1003.89 1003.93 1004.33 1004.83 1004.45 1003.60 1003.38 1004.14 1003.40 1003.48 1003.15 1003.41 1004.16 1004.34 1004.79 1003.40 1002.03 999.93 998.45 998.17 997.62 997.12 996.47 997.66 998.68 999.84
1010.56 1007.44 1005.75 1005.72 1006.12 1006.23 1005.54 1003.84 1003.02 1003.31 1003.59 1003.72 1004.09 1004.58 1004.65 1005.19 1005.26 1005.38 1005.21 1004.90 1004.73 1004.88 1006.01 1005.75 1005.21 1005.03 1004.61 1004.43 1004.24 1004.35 1004.90 1005.74 1006.82 1006.03 1004.07 1002.04 1000.65 999.62 999.81 999.38 998.92 999.19 999.16 999.75 1000.35
1010.08 1006.85 1005.46 1005.33 1005.63 1005.54 1004.60 1003.46 1003.18 1004.03 1004.15 1004.01 1004.53 1005.08 1005.53 1005.86 1005.89 1005.95 1006.13 1005.94 1006.04 1005.95 1006.51 1006.75 1006.70 1006.06 1005.70 1005.20 1004.84 1004.86 1005.42 1006.56 1007.02 1006.78 1005.64 1003.80 1001.88 1000.65 1001.10 1001.23 1000.88 1000.73 1000.66 1000.85 1001.48
1008.67 1006.12 1005.30 1005.23 1005.12 1003.97 1004.28 1003.59 1004.18 1004.11 1004.74 1004.55 1004.71 1004.73 1005.58 1006.33 1006.53 1006.60 1006.42 1007.01 1007.08 1007.19 1007.30 1007.74 1008.06 1007.07 1006.16 1005.63 1005.11 1004.86 1005.18 1005.88 1007.11 1007.04 1006.14 1005.04 1003.52 1002.37 1002.01 1002.11 1002.05 1001.84 1001.61 1001.91 1002.09
1009.18 1005.71 1005.25 1005.29 1004.54 1003.70 1003.54 1003.94 1004.56 1004.72 1004.75 1004.93 1004.81 1005.39 1006.00 1006.36 1006.88 1006.22 1006.21 1007.05 1007.61 1007.94 1008.68 1009.00 1008.64 1008.03 1006.59 1005.37 1006.20 1006.51 1007.20 1007.49 1007.83 1007.58 1006.34 1005.85 1002.90 1002.43 1002.64 1003.30 1003.56 1003.10 1002.75 1002.74 1002.43
1009.79 1005.97 1005.10 1005.03 1004.69 1004.64 1004.26 1004.11 1004.65 1005.60 1005.65 1005.94 1005.81 1005.82 1006.20 1006.53 1007.28 1007.25 1006.65 1007.40 1008.13 1008.78 1010.08 1010.35 1009.77 1009.42 1008.54 1007.76 1007.33 1007.15 1007.26 1007.75 1008.23 1007.60 1006.23 1005.03 1003.30 1002.66 1002.54 1003.25 1003.11 1002.86 1003.11 1003.06 1002.48
1009.25 1007.30 1007.15 1005.27 1005.34 1005.64 1005.67 1005.36 1005.02 1005.30 1005.98 1006.30 1006.13 1006.48 1006.89 1007.08 1006.94 1006.69 1006.84 1007.07 1007.77 1009.33 1010.06 1010.58 1010.39 1009.87 1008.90 1008.28 1007.76 1006.81 1006.17 1005.96 1005.66 1005.23 1004.91 1003.43 1002.98 1002.29 1002.11 1002.04 1002.02 1002.68 1003.09 1002.96 1002.67
1009.71 1008.63 1007.59 1006.66 1006.83 1006.34 1006.32 1005.69 1005.91 1006.11 1006.86 1006.30 1006.91 1007.05 1007.80 1008.21 1008.15 1007.85 1007.92 1008.09 1008.20 1008.81 1009.66 1010.73 1010.65 1010.19 1009.07 1008.23 1007.21 1006.09 1005.28 1004.50 1003.96 1003.47 1002.96 1002.44 1001.92 1001.71 1001.46 1001.48 1002.28 1003.04 1003.06 1002.69 1002.47
1010.35 1009.39 1008.84 1007.74 1006.76 1006.56 1006.16 1006.63 1006.90 1007.61 1007.37 1007.70 1008.21 1008.33 1008.25 1008.25 1008.48 1008.48 1008.53 1008.49 1008.53 1008.91 1009.78 1010.96 1011.23 1010.94 1009.37 1008.22 1007.46 1005.42 1003.91 1003.21 1002.91 1002.69 1002.35 1002.13 1001.96 1002.02 1002.03 1002.83 1003.16 1003.13 1002.74 1002.76 1002.71
Wind_Speed
16 15 12 12 11 11 11 11 11 11 11 11 12 12 12 14 17 12 14 8 7 7 1 12 12 15 15 16 17 15 12 15 20 18 17 18 10 14 6 11 6 1 9 7 6
17 15 14 11 11 10 10 10 10 10 10 11 11 12 13 13 15 20 18 10 9 6 12 13 12 13 13 14 15 14 12 20 14 20 16 17 14 13 2 16 8 12 12 12 3
18 17 15 13 12 10 10 10 10 10 10 10 10 11 11 12 11 8 13 17 12 9 15 16 14 14 15 15 17 16 17 17 18 17 6 9 12 4 8 11 9 14 14 16 13
18 18 17 15 13 10 10 9 9 10 10 10 10 10 10 10 3 7 11 12 11 10 15 17 17 15 16 18 18 19 20 19 22 10 2 12 11 11 11 15 16 13 16 10 11
17 17 17 16 15 13 10 9 9 9 9 10 10 9 9 9 13 11 12 11 11 12 17 16 15 15 17 18 19 20 19 19 17 18 9 10 14 16 16 15 11 12 13 9 9
15 17 17 16 16 14 12 9 9 9 10 10 9 8 8 12 8 13 13 13 13 17 16 16 13 14 15 19 19 16 19 16 18 14 12 15 17 16 16 15 15 13 14 10 12
16 14 17 16 16 16 13 11 8 9 9 10 8 8 11 18 4 14 13 13 16 16 13 13 16 14 12 15 19 15 18 12 16 20 16 16 19 19 16 17 15 16 15 15 15
16 16 14 17 16 16 16 14 12 10 10 10 7 10 10 5 15 11 13 14 15 11 14 11 9 11 15 13 10 14 15 17 18 20 20 18 18 18 20 21 18 13 13 13 13
16 16 16 17 17 17 16 16 16 12 10 9 8 10 9 2 9 11 13 14 9 10 10 7 5 13 15 14 14 15 14 20 22 21 22 21 20 15 20 6 13 12 12 14 14
16 16 16 17 17 16 16 17 8 6 8 11 11 10 11 11 11 14 15 13 9 10 10 9 9 13 14 13 13 18 19 20 17 13 13 14 13 15 14 12 12 12 13 12 11
18 17 17 16 16 13 12 4 5 7 12 10 10 9 4 4 5 12 12 13 12 10 13 14 12 14 17 18 19 21 21 16 14 13 15 18 14 14 12 14 15 16 16 15 13
19 19 18 17 16 11 8 7 10 3 7 22 17 15 10 1 7 10 15 13 13 14 15 15 16 17 18 18 18 18 18 17 17 19 16 16 16 15 18 19 17 16 13 13 14
18 19 19 17 13 8 14 16 13 8 6 2 8 9 12 10 11 13 16 16 13 16 17 17 18 16 18 15 19 16 15 16 19 19 19 17 16 16 20 19 18 17 14 13 12
20 19 18 15 5 10 10 20 14 5 5 11 8 7 3 5 10 17 17 15 14 17 16 16 18 19 12 12 13 19 16 19 19 17 14 17 15 18 20 20 22 21 19 16 13
21 20 18 9 11 7 5 13 14 4 4 13 11 7 6 10 5 11 10 12 18 16 11 15 16 16 15 16 19 17 17 17 19 16 17 18 14 14 16 18 18 16 16 14 13
22 20 17 6 7 13 3 5 2 7 4 7 9 10 10 13 2 10 8 6 11 14 16 17 21 17 9 12 10 8 14 18 15 15 16 19 19 16 17 18 17 17 14 13 9
23 21 11 10 6 5 6 6 5 6 14 2 6 9 15 10 10 11 12 13 10 8 12 16 17 17 17 14 15 14 12 10 14 15 15 21 20 15 14 12 11 7 7 14 11
29 22 9 10 5 4 5 8 7 9 3 4 4 6 2 5 5 5 7 11 14 14 10 10 10 12 9 11 12 16 11 11 19 15 18 23 14 14 14 16 14 9 5 14 10
31 6 6 3 2 4 8 7 3 0 4 3 2 2 2 2 3 3 8 10 12 9 10 8 16 13 9 16 16 10 11 14 16 15 17 15 23 20 10 13 18 9 7 7 9
8 10 4 1 4 5 6 8 3 5 2 1 1 0 2 3 4 4 3 6 4 2 3 7 14 11 15 12 17 13 12 7 4 6 13 13 13 10 14 12 9 7 2 5 6
5 4 5 2 2 6 8 1 8 9 6 3 6 1 1 2 4 4 4 1 8 6 6 9 11 12 14 14 18 16 12 11 12 13 7 12 10 2 10 14 13 4 4 6 6
7 2 5 3 7 7 2 6 4 4 2 2 3 7 4 1 3 4 4 2 3 4 5 4 4 10 17 19 21 19 19 17 7 10 11 13 8 14 9 6 7 11 8 5 7
7 2 4 4 4 9 7 3 2 1 1 4 3 2 4 2 4 8 2 10 7 8 6 8 4 8 9 12 9 8 14 12 13 7 8 11 11 7 5 11 14 13 12 13 14
7 3 5 5 2 7 6 2 3 5 5 2 8 5 6 6 7 6 6 4 1 4 7 5 9 13 13 17 19 18 13 13 12 4 5 14 18 16 11 12 15 14 9 16 14
5 4 4 4 7 7 2 4 3 1 2 0 4 1 7 4 7 10 8 7 3 12 3 3 10 16 16 17 19 23 24 21 20 22 18 22 21 21 18 17 11 16 11 10 14
6 6 4 1 5 6 4 4 4 6 2 1 2 5 6 5 10 14 15 12 11 8 6 3 10 14 19 20 21 24 24 24 22 23 22 23 21 19 15 12 8 7 10 12 15
6 2 5 1 5 5 4 7 4 4 2 3 7 8 7 10 12 13 13 14 13 11 7 5 4 6 14 18 13 16 19 19 13 17 20 15 11 11 9 12 11 11 13 16 17
Wind_Direction
352 345 336 328 320 310 300 294 292 292 293 295 296 301 303 306 301 250 249 234 220 155 57 268 214 226 226 245 236 222 246 247 250 258 266 261 263 250 206 262 306 293 235 130 101
349 351 348 337 326 318 309 297 292 292 290 290 294 298 304 315 291 263 237 158 127 150 232 237 216 216 218 225 230 228 230 245 246 248 264 260 266 279 221 249 238 268 268 283 232
350 350 353 346 340 323 311 301 294 288 287 288 292 299 305 310 270 250 214 159 154 187 234 251 237 210 228 232 224 219 243 247 243 256 268 308 280 275 297 263 262 265 245 239 237
344 345 347 348 345 332 317 304 295 289 286 287 295 299 309 276 278 79 113 131 154 210 223 246 238 226 226 230 232 228 237 246 272 277 230 266 255 268 241 257 260 253 273 302 321
342 342 343 341 343 338 321 304 295 286 284 286 291 303 282 226 255 131 138 143 176 203 212 233 222 230 225 237 234 232 240 248 246 265 252 257 254 254 246 239 240 254 274 256 275
338 338 339 338 335 335 329 310 292 285 280 277 285 299 252 254 96 134 164 166 187 195 217 229 227 230 242 239 249 234 244 253 270 249 255 248 250 248 248 251 250 231 236 214 240
331 333 333 333 333 329 323 316 287 277 272 274 283 270 265 246 328 149 164 186 194 209 224 233 251 259 244 277 264 255 251 250 245 255 235 243 246 247 253 258 224 239 232 237 244
324 325 327 328 328 326 322 316 304 280 265 264 265 261 266 215 238 251 182 199 217 215 248 250 250 278 266 273 270 262 244 258 247 235 232 236 253 250 238 227 221 236 233 254 236
324 318 320 323 323 322 317 308 292 265 252 249 243 223 256 150 216 219 218 222 209 228 239 309 272 249 249 248 256 232 248 243 245 248 224 214 242 253 247 304 197 225 237 246 244
317 316 314 313 317 319 316 305 337 182 216 213 255 259 253 244 177 215 215 227 189 214 219 217 236 235 236 233 237 240 222 238 262 241 192 233 246 243 270 199 232 232 255 257 245
317 315 311 308 309 316 316 231 219 192 225 227 204 247 119 134 99 194 205 213 202 219 226 216 236 235 232 228 254 271 286 298 291 236 197 213 228 250 265 262 217 216 216 226 227
312 311 310 306 299 297 286 239 242 25 299 225 263 253 274 4 196 214 185 206 219 227 220 242 226 250 254 255 254 254 266 273 283 292 290 280 267 256 256 259 261 258 242 242 230
310 310 309 303 301 269 223 229 276 319 261 261 225 253 244 209 252 193 191 203 214 225 240 232 246 246 223 261 267 259 264 272 273 281 282 274 261 268 262 256 259 262 257 238 257
313 311 311 308 271 219 210 228 230 147 273 161 196 191 250 258 247 262 178 215 235 240 231 246 249 261 241 237 263 274 245 253 260 266 266 266 271 255 251 241 229 230 229 233 230
314 313 317 252 325 236 163 172 208 192 267 173 128 119 165 193 126 232 187 208 246 241 244 262 254 255 259 278 282 264 257 269 285 281 281 261 265 266 263 256 252 239 226 219 204
315 318 326 202 219 272 313 69 161 234 243 181 131 160 175 209 187 139 209 220 244 270 287 290 301 293 292 281 321 324 300 284 261 267 256 259 256 258 261 262 258 234 210 199 188
316 315 303 301 292 224 207 207 235 232 236 159 146 172 177 179 168 190 188 201 218 217 244 261 259 275 288 264 262 269 254 264 251 240 247 242 243 244 274 336 331 313 70 103 103
315 313 223 245 266 284 255 226 241 215 63 84 346 315 211 132 183 161 214 213 205 246 267 271 274 238 280 271 283 283 276 268 281 286 293 315 290 293 330 311 301 260 124 125 142
311 240 237 195 356 228 246 247 254 39 17 73 60 259 203 158 345 329 271 246 224 232 261 293 255 293 356 302 313 292 270 295 308 293 269 261 273 271 1 353 350 178 183 138 101
306 287 88 198 136 255 266 254 151 37 331 50 84 22 291 349 291 346 249 1 316 135 126 276 285 276 286 292 283 282 305 320 244 266 272 271 294 302 354 330 16 330 2 287 67
256 247 110 251 192 241 247 344 91 63 354 332 125 201 92 351 324 327 275 52 330 303 271 259 261 278 279 263 264 266 219 245 256 262 256 273 271 14 41 354 344 336 327 18 339
291 265 108 211 247 232 202 19 344 79 149 258 294 224 166 205 297 217 245 349 6 328 292 293 281 279 281 287 276 267 266 259 232 235 239 259 263 288 70 17 344 330 349 325 306
278 0 121 219 263 293 99 122 337 322 337 322 304 92 127 56 268 238 315 69 35 344 25 5 265 299 290 285 55 11 347 357 324 277 240 269 261 305 6 338 313 298 304 309 300
278 269 146 224 297 318 26 229 125 114 280 355 298 328 261 216 219 262 282 90 76 53 77 336 271 265 271 286 303 284 244 256 253 230 280 261 280 286 297 197 245 252 283 285 292
252 54 8 342 70 339 328 23 289 196 123 18 256 40 330 316 294 264 244 274 244 127 244 225 268 270 274 280 280 284 284 279 259 259 259 278 281 286 290 281 291 29 291 281 288
324 345 339 308 316 283 148 141 335 91 300 318 239 8 4 298 308 311 317 299 284 255 248 246 260 283 283 285 273 270 271 270 268 269 265 267 269 273 314 310 12 339 301 279 280
8 242 270 235 194 259 55 40 36 22 214 1 359 328 298 330 330 308 301 290 270 260 251 235 239 292 277 291 303 273 263 270 287 300 274 274 314 342 352 1 343 304 312 323 317